Tracking 18647 objects as of 28-May-2017
HD Live streaming from Space Station
objects crossing your sky now

SL-8 DEB

Track SL-8 DEB now!
10-day predictions


NORAD ID: 18545
Int'l Code: 1986-100C
Perigee: 880.6 km
Apogee: 904.8 km
Inclination: 82.9 °
Period: 102.7 minutes
Semi major axis: 7263 km
RCS: 0.0131 m2 (small)
Launch date: December 17, 1986
Source: Commonwealth of Independent States (former USSR) (CIS)
Launch site: PLESETSK MISSILE AND SPACE COMPLEX (PKMTR)

Note: This is SATELLITE DEBRIS
Your satellite tracking list
Your tracking list is empty





NASA's NSSDC Master Catalog

Two Line Element Set (TLE):
1 18545U 86100C   17147.15641946 +.00000571 +00000-0 +36112-3 0  9993
2 18545 082.9280 197.0326 0016641 175.5043 238.3915 14.02382397540879
Source of the keplerian elements: AFSPC